Macon, GA

12:38 PM EST on November 23, 2017 (GMT -0500)
Middle Georgia Regional

Weather History for KMCN - January, 2013

Change the Weather History Date:

Thursday, January 10, 2013

  Actual Average Record
Temperature  
Mean Temperature 62 °F 46 °F  
Max Temperature 69 °F 57 °F 81 °F (1949)
Min Temperature 54 °F 35 °F 11 °F (1970)
Degree Days  
Heating Degree Days 3 19  
Month to date heating degree days 151 190  
Since 1 July heating degree days 982 1115  
Cooling Degree Days 0 0  
Month to date cooling degree days 0 0  
Year to date cooling degree days 0 0  
Growing Degree Days 12 (Base 50)    
Moisture  
Dew Point 60 °F    
Average Humidity 91    
Maximum Humidity 100    
Minimum Humidity 81    
Precipitation  
Precipitation 0.07 in 0.14 in 2.63 in (1925)
Month to date precipitation 0.27 1.30  
Year to date precipitation 0.27 1.30  
Snow  
Snow 0.00 in 0.10 in 0.00 in (2002)
Month to date snowfall 0.0 0.2  
Since 1 July snowfall 0.0 0.3  
Snow Depth -    
Sea Level Pressure  
Sea Level Pressure 30.34 in    
Wind  
Wind Speed 6 mph (East)    
Max Wind Speed 16 mph    
Max Gust Speed 22 mph    
Visibility 6 miles    
Events Rain    
T = Trace of Precipitation, MM = Missing Value Source: NWS Daily Summary

Daily Weather History Graph

Daily Weather History Graph

Search for Another Location

Airport or City:

Trip Planner

Search our weather history database for the weather conditions in past years. The results will help you decide how hot, cold, wet, or windy it might be!

Date:

Astronomy

Jan. 10, 2013 Rise Set
Actual Time 7:37 AM EST 5:47 PM EST
Civil Twilight 7:10 AM EST 6:14 PM EST
Nautical Twilight 6:40 AM EST 6:44 PM EST
Astronomical Twilight 6:10 AM EST 7:14 PM EST
Moon 6:16 AM EST (1/10) 4:53 PM EST (1/10)
Length of Visible Light 11h 03m
Length of Day
10h 09m
Waning Crescent, 2% of the Moon is Illuminated
Jan 10
Waning Crescent
Jan 11
New
Jan 18
First Quarter
Jan 26
Full
Feb 3
Last Quarter

Hourly Weather History & Observations

Time (EST) Temp. Dew Point Humidity Pressure Visibility Wind Dir Wind Speed Gust Speed Precip Events Conditions
12:53 AM 57.0 °F 55.9 °F 96% 30.38 in 9.0 mi Calm Calm - N/A   Mostly Cloudy
1:53 AM 57.2 °F 55.4 °F 94% 30.38 in 8.0 mi Calm Calm - N/A   Overcast
2:53 AM 55.9 °F 55.0 °F 97% 30.37 in 6.0 mi North 4.6 mph - N/A   Partly Cloudy
3:53 AM 55.0 °F 54.0 °F 96% 30.37 in 4.0 mi Calm Calm - N/A   Overcast
5:53 AM 57.0 °F 55.9 °F 96% 30.36 in 6.0 mi NE 4.6 mph - N/A   Overcast
6:41 AM 55.4 °F 55.4 °F 100% 30.37 in 2.5 mi Calm Calm - N/A   Scattered Clouds
6:53 AM 55.9 °F 55.9 °F 100% 30.36 in 2.5 mi NE 3.5 mph - N/A   Mostly Cloudy
7:00 AM 55.4 °F 55.4 °F 100% 30.37 in 1.8 mi NE 3.5 mph - N/A   Mostly Cloudy
7:10 AM 57.2 °F 55.4 °F 94% 30.37 in 3.0 mi NE 3.5 mph - N/A   Overcast
7:34 AM 57.2 °F 57.2 °F 100% 30.37 in 4.0 mi ENE 5.8 mph - N/A   Overcast
7:53 AM 57.9 °F 57.9 °F 100% 30.38 in 1.0 mi ENE 6.9 mph - N/A   Overcast
8:34 AM 59.0 °F 57.2 °F 94% 30.39 in 1.0 mi East 5.8 mph - N/A   Overcast
8:53 AM 59.0 °F 57.9 °F 96% 30.38 in 1.0 mi East 5.8 mph - N/A   Overcast
9:00 AM 60.8 °F 57.2 °F 88% 30.39 in 2.0 mi East 5.8 mph - N/A   Overcast
9:53 AM 60.1 °F 59.0 °F 96% 30.40 in 2.0 mi East 8.1 mph - N/A   Overcast
10:31 AM 60.8 °F 59.0 °F 94% 30.41 in 2.0 mi East 8.1 mph - N/A   Overcast
10:53 AM 61.0 °F 59.0 °F 93% 30.40 in 2.0 mi East 8.1 mph - N/A   Overcast
11:32 AM 62.6 °F 60.8 °F 94% 30.39 in 2.0 mi East 10.4 mph - N/A   Overcast
11:50 AM 62.6 °F 60.8 °F 94% 30.38 in 4.0 mi East 8.1 mph - N/A   Overcast
11:53 AM 62.1 °F 60.1 °F 93% 30.38 in 4.0 mi East 6.9 mph - N/A   Overcast
12:53 PM 64.0 °F 61.0 °F 90% 30.35 in 10.0 mi ESE 6.9 mph - N/A   Overcast
1:42 PM 66.2 °F 62.6 °F 88% 30.32 in 10.0 mi ESE 8.1 mph - N/A   Overcast
1:53 PM 66.9 °F 62.1 °F 84% 30.32 in 10.0 mi ESE 4.6 mph - N/A   Overcast
2:39 PM 69.8 °F 62.6 °F 78% 30.31 in 10.0 mi East 8.1 mph - N/A   Overcast
2:53 PM 68.0 °F 63.0 °F 84% 30.31 in 10.0 mi ESE 11.5 mph - N/A   Overcast
3:53 PM 68.0 °F 63.0 °F 84% 30.31 in 10.0 mi ESE 10.4 mph - N/A   Overcast
4:53 PM 66.9 °F 63.0 °F 87% 30.32 in 8.0 mi SE 4.6 mph - 0.03 in   Overcast
5:25 PM 66.2 °F 64.4 °F 94% 30.33 in 3.0 mi SE 3.5 mph - 0.01 in Rain Light Rain
5:32 PM 66.2 °F 64.4 °F 94% 30.33 in 2.5 mi SE 3.5 mph - 0.01 in Rain Light Rain
5:37 PM 64.4 °F 64.4 °F 100% 30.33 in 4.0 mi ESE 6.9 mph - 0.01 in Rain Light Rain
5:41 PM 66.2 °F 64.4 °F 94% 30.33 in 5.0 mi ESE 10.4 mph - 0.02 in Rain Light Rain
5:53 PM 64.9 °F 64.0 °F 97% 30.32 in 5.0 mi ESE 10.4 mph - 0.03 in Rain Light Rain
6:13 PM 64.4 °F 64.4 °F 100% 30.33 in 8.0 mi ESE 6.9 mph - 0.00 in   Overcast
6:42 PM 64.4 °F 64.4 °F 100% 30.32 in 10.0 mi ESE 6.9 mph - 0.01 in Rain Light Rain
6:53 PM 64.9 °F 64.0 °F 97% 30.32 in 10.0 mi ESE 5.8 mph - 0.01 in   Overcast
7:53 PM 64.0 °F 63.0 °F 96% 30.30 in 10.0 mi ESE 8.1 mph - N/A   Overcast
8:38 PM 64.4 °F 62.6 °F 94% 30.29 in 10.0 mi ESE 9.2 mph - N/A   Overcast
8:53 PM 64.0 °F 63.0 °F 96% 30.29 in 10.0 mi ESE 10.4 mph - N/A   Overcast
9:53 PM 64.0 °F 62.1 °F 93% 30.30 in 10.0 mi SE 9.2 mph - N/A   Overcast
10:15 PM 64.4 °F 62.6 °F 94% 30.30 in 10.0 mi SE 9.2 mph - N/A   Overcast
10:53 PM 63.0 °F 62.1 °F 97% 30.28 in 4.0 mi SE 10.4 mph - N/A   Overcast
11:19 PM 62.6 °F 62.6 °F 100% 30.27 in 2.5 mi SE 8.1 mph - N/A   Overcast
11:53 PM 62.6 °F 62.6 °F 100% 30.26 in 3.0 mi SE 9.2 mph - N/A   Overcast